Flag for Spain Weather past 2 weeks in Pamplona, Spain

Now
32 °F

Light snow. Passing clouds.


Feels Like: 27 °F
Forecast: 34 / 42 °F
Wind: 5 mph from Northwest

Location: Pamplona / Noain

Current Time: Feb 1, 2015 at 7:58:36 PM

Latest Report: Feb 1, 2015 at 7:00 PM


Visibility: 2 mi

Pressure: 29.89 "Hg

Humidity: 100%

Dew point: 32 °F

Location of PamplonaLocation

Historic Weather in Pamplona — Graph

°F

Pamplona temperature yesterday

Maximum temperature yesterday: 41 °F (at 11:30 AM)
Minimum temperature yesterday: 32 °F (at 6:00 PM)
Average temperature yesterday: 36 °F

Past Weeks' High & Low Weather Summary

 TemperatureHumidityPressure
High50 °F (Jan 29, 3:00 PM)100% (Jan 17, 10:00 PM)30.45 "Hg (Jan 17, 10:00 PM)
Low28 °F (Jan 20, 6:00 AM)42% (Jan 25, 2:00 PM)29.21 "Hg (Jan 31, 5:30 AM)
Average39 °F87%29.99 "Hg
* Reported Jan 17 6:00 PM — Feb 1 6:30 PM, Pamplona, Weather by CustomWeather, © 2014

Note: Actual official high and low records may vary slightly from our data, if they occured in-between our weather recording intervals... More about our weather records

Advertising

Pamplona weather history for previous 24 hours

 ConditionsComfort  
Time TempWeatherWind HumidityBarometerVisibility
6:30 PM
Feb 1
32 °FLight snow. Passing clouds.2 mph100%29.86 "Hg3 mi
6:00 PM32 °FLight snow. Broken clouds.3 mph100%29.86 "Hg5 mi
5:30 PM32 °FSnow. Partly sunny.1 mph100%29.86 "Hg1 mi
5:00 PM32 °FSnow. Partly sunny.2 mph100%29.86 "Hg1 mi
4:30 PM32 °FSnow. Partly sunny.6 mph100%29.86 "Hg1 mi
4:00 PM32 °FSnow. Dense fog.1 mph100%29.83 "Hg0 mi
3:49 PM32 °FSnow. Dense fog.1 mph100%29.83 "Hg0 mi
3:30 PM32 °FSnow. Dense fog.No wind100%29.83 "Hg0 mi
3:00 PM32 °FSnow. Dense fog.No wind100%29.83 "Hg1 mi
2:30 PM32 °FSnow. Partly sunny.2 mph100%29.83 "Hg1 mi
2:00 PM34 °FBroken clouds.2 mph100%29.83 "Hg6 mi
12:30 PM32 °FSnow. Dense fog.7 mph100%29.83 "Hg1 mi
12:00 PM32 °FSnow. Dense fog.3 mph100%29.83 "Hg1 mi
11:48 AM32 °FSnow. Broken clouds.5 mph100%29.83 "Hg1 mi
11:30 AM32 °FSnow. Broken clouds.8 mph100%29.83 "Hg1 mi
11:00 AM32 °FSnow. Dense fog.1 mph100%29.80 "Hg1 mi
10:30 AM34 °FSnow. Partly sunny.1 mph100%29.80 "Hg1 mi
10:00 AM34 °FSnow. Broken clouds.7 mph100%29.80 "Hg1 mi
9:30 AM36 °FScattered clouds.2 mph93%29.77 "HgN/A
9:00 AM34 °FSnow. Broken clouds.8 mph100%29.77 "Hg4 mi
8:30 AM34 °FSnow. Broken clouds.14 mph100%29.77 "Hg4 mi
8:00 AM34 °FSnow. Partly cloudy.14 mph100%29.74 "Hg4 mi
7:30 AM34 °FLight snow. Partly cloudy.13 mph100%29.74 "Hg6 mi
7:00 AM34 °FSnow. Passing clouds.14 mph100%29.71 "Hg4 mi
6:49 AM34 °FSnow. Passing clouds.15 mph100%29.71 "Hg2 mi
6:30 AM36 °FSnow. Partly cloudy.15 mph87%29.71 "HgN/A
6:00 AM36 °FPartly cloudy.14 mph87%29.68 "HgN/A
5:30 AM36 °FPartly cloudy.17 mph87%29.68 "HgN/A
12:00 AM34 °FRain. Partly cloudy.6 mph100%29.62 "Hg2 mi
11:30 PM
Jan 31
34 °FRain. Partly cloudy.6 mph100%29.62 "Hg5 mi
11:00 PM34 °FSnow. Partly cloudy.2 mph100%29.59 "Hg6 mi
10:30 PM32 °FSnow. Passing clouds.No wind100%29.59 "Hg2 mi
9:30 PM32 °FSnow showers. Partly cloudy.1 mph100%29.59 "Hg2 mi
9:00 PM32 °FSnow showers. Partly cloudy.2 mph100%29.56 "Hg1 mi
8:30 PM32 °FSnow showers. Partly cloudy.2 mph100%29.56 "Hg2 mi
8:00 PM32 °FSnow showers. Passing clouds.1 mph100%29.56 "Hg4 mi
7:30 PM32 °FLight snow. Passing clouds.2 mph100%29.56 "HgN/A
7:00 PM32 °FSnow. Passing clouds.1 mph100%29.56 "Hg4 mi
Weather by CustomWeather, © 2014

See weather overviewHow to use our weather pages